TimeCDT,TemperatureF,Dew PointF,Humidity,Sea Level PressureIn,VisibilityMPH,Wind Direction,Wind SpeedMPH,Gust SpeedMPH,PrecipitationIn,Events,Conditions,WindDirDegrees,DateUTC
12:15 AM,53.4,43.0,68,30.22,10.0,West,6.9,-,N/A,,Scattered Clouds,280,2012-10-12 05:15:00
12:35 AM,52.9,43.5,71,30.21,10.0,WSW,3.5,-,N/A,,Scattered Clouds,240,2012-10-12 05:35:00
12:55 AM,51.8,42.8,71,30.21,10.0,West,4.6,-,N/A,,Clear,280,2012-10-12 05:55:00
1:15 AM,53.2,44.6,72,30.21,10.0,NNW,10.4,-,N/A,,Clear,340,2012-10-12 06:15:00
1:35 AM,52.0,45.1,77,30.22,10.0,North,16.1,21.9,N/A,,Clear,10,2012-10-12 06:35:00
1:55 AM,50.9,44.2,78,30.23,10.0,NNE,19.6,25.3,N/A,,Clear,20,2012-10-12 06:55:00
2:15 AM,50.0,43.7,79,30.24,10.0,North,13.8,20.7,N/A,,Clear,10,2012-10-12 07:15:00
2:35 AM,49.3,41.9,76,30.25,10.0,NNE,16.1,21.9,N/A,,Clear,20,2012-10-12 07:35:00
2:55 AM,48.2,39.2,71,30.26,10.0,North,11.5,17.3,N/A,,Clear,10,2012-10-12 07:55:00
3:15 AM,48.0,39.2,72,30.27,10.0,North,11.5,-,N/A,,Clear,10,2012-10-12 08:15:00
3:35 AM,47.3,37.8,69,30.26,10.0,NNE,12.7,-,N/A,,Clear,20,2012-10-12 08:35:00
3:55 AM,47.3,37.8,69,30.28,10.0,NNE,11.5,-,N/A,,Clear,20,2012-10-12 08:55:00
4:15 AM,46.4,38.3,73,30.29,10.0,North,9.2,-,N/A,,Clear,10,2012-10-12 09:15:00
4:35 AM,45.9,38.7,76,30.30,10.0,North,9.2,-,N/A,,Clear,360,2012-10-12 09:35:00
4:55 AM,46.0,39.2,77,30.30,10.0,NNE,6.9,-,N/A,,Clear,20,2012-10-12 09:55:00
5:15 AM,45.0,39.2,80,30.31,10.0,North,8.1,-,N/A,,Clear,10,2012-10-12 10:15:00
5:35 AM,44.6,39.2,81,30.31,10.0,North,10.4,-,N/A,,Clear,10,2012-10-12 10:35:00
5:55 AM,44.4,39.2,82,30.31,10.0,NNE,9.2,-,N/A,,Clear,20,2012-10-12 10:55:00
6:15 AM,43.9,39.0,83,30.32,10.0,North,8.1,-,N/A,,Clear,10,2012-10-12 11:15:00
6:35 AM,43.9,39.0,83,30.33,10.0,North,8.1,-,N/A,,Clear,10,2012-10-12 11:35:00
6:55 AM,43.2,38.7,84,30.34,10.0,North,6.9,-,N/A,,Clear,10,2012-10-12 11:55:00
7:15 AM,42.8,38.8,86,30.35,7.0,NNE,6.9,-,N/A,,Clear,20,2012-10-12 12:15:00
7:35 AM,42.8,39.2,87,30.36,10.0,North,5.8,-,N/A,,Clear,360,2012-10-12 12:35:00
7:55 AM,43.9,39.4,84,30.38,10.0,North,5.8,-,N/A,,Clear,10,2012-10-12 12:55:00
8:15 AM,45.3,39.4,80,30.39,10.0,NNE,6.9,-,N/A,,Clear,20,2012-10-12 13:15:00
8:35 AM,46.6,40.3,79,30.39,10.0,NE,8.1,-,N/A,,Clear,40,2012-10-12 13:35:00
8:55 AM,48.9,40.8,74,30.39,10.0,NE,17.3,-,N/A,,Clear,50,2012-10-12 13:55:00
9:15 AM,50.0,40.8,71,30.40,10.0,NE,17.3,23.0,N/A,,Clear,50,2012-10-12 14:15:00
9:35 AM,50.9,40.3,67,30.40,10.0,ENE,16.1,21.9,N/A,,Clear,60,2012-10-12 14:35:00
9:55 AM,51.8,38.5,60,30.41,10.0,East,15.0,20.7,N/A,,Clear,80,2012-10-12 14:55:00
10:15 AM,52.7,36.7,55,30.41,10.0,ENE,17.3,25.3,N/A,,Clear,70,2012-10-12 15:15:00
10:35 AM,53.6,36.0,51,30.41,10.0,East,17.3,-,N/A,,Clear,80,2012-10-12 15:35:00
10:55 AM,55.4,35.6,47,30.41,10.0,ENE,16.1,24.2,N/A,,Clear,60,2012-10-12 15:55:00
11:15 AM,55.0,34.2,45,30.41,10.0,ENE,16.1,23.0,N/A,,Clear,70,2012-10-12 16:15:00
11:35 AM,55.4,34.0,44,30.41,10.0,East,15.0,23.0,N/A,,Clear,80,2012-10-12 16:35:00
11:55 AM,56.5,33.8,42,30.41,10.0,ENE,12.7,19.6,N/A,,Clear,60,2012-10-12 16:55:00
12:15 PM,56.8,33.8,42,30.41,10.0,ENE,15.0,19.6,N/A,,Clear,60,2012-10-12 17:15:00
12:35 PM,57.9,33.3,39,30.39,10.0,ENE,12.7,19.6,N/A,,Clear,60,2012-10-12 17:35:00
12:55 PM,57.9,32.4,38,30.39,10.0,East,9.2,16.1,N/A,,Clear,80,2012-10-12 17:55:00
1:35 PM,59.2,30.2,33,30.38,10.0,ENE,13.8,17.3,N/A,,Clear,60,2012-10-12 18:35:00
1:55 PM,59.2,31.5,35,30.37,10.0,ENE,8.1,-,N/A,,Clear,60,2012-10-12 18:55:00
2:15 PM,60.3,29.8,32,30.36,10.0,NE,9.2,-,N/A,,Clear,50,2012-10-12 19:15:00
2:35 PM,59.9,30.9,33,30.36,10.0,NE,8.1,17.3,N/A,,Clear,50,2012-10-12 19:35:00
2:55 PM,60.4,29.3,31,30.35,10.0,East,6.9,-,N/A,,Clear,90,2012-10-12 19:55:00
3:15 PM,60.6,30.2,32,30.34,10.0,East,6.9,10.4,N/A,,Clear,80,2012-10-12 20:15:00
3:35 PM,60.3,30.2,32,30.34,10.0,ENE,6.9,-,N/A,,Clear,60,2012-10-12 20:35:00
3:55 PM,60.8,30.6,32,30.34,7.0,ESE,8.1,-,N/A,,Clear,110,2012-10-12 20:55:00
4:15 PM,60.8,30.0,31,30.34,10.0,East,8.1,-,N/A,,Clear,90,2012-10-12 21:15:00
4:35 PM,60.3,30.2,32,30.33,10.0,ESE,8.1,-,N/A,,Clear,110,2012-10-12 21:35:00
4:55 PM,60.8,30.2,31,30.34,10.0,East,5.8,-,N/A,,Clear,100,2012-10-12 21:55:00
5:15 PM,59.9,31.6,34,30.33,10.0,East,8.1,-,N/A,,Clear,80,2012-10-12 22:15:00
5:35 PM,59.0,33.8,39,30.33,10.0,East,6.9,-,N/A,,Clear,90,2012-10-12 22:35:00
5:55 PM,57.7,32.7,39,30.33,10.0,East,5.8,-,N/A,,Clear,90,2012-10-12 22:55:00
6:15 PM,55.0,34.2,45,30.32,10.0,East,5.8,-,N/A,,Clear,80,2012-10-12 23:15:00
6:35 PM,52.0,35.1,53,30.31,10.0,ENE,6.9,-,N/A,,Clear,70,2012-10-12 23:35:00
6:55 PM,50.7,34.9,55,30.32,10.0,ENE,6.9,-,N/A,,Clear,70,2012-10-12 23:55:00
7:15 PM,50.0,35.2,57,30.32,10.0,ENE,6.9,-,N/A,,Clear,70,2012-10-13 00:15:00
7:35 PM,49.3,35.1,58,30.31,10.0,ENE,8.1,-,N/A,,Clear,70,2012-10-13 00:35:00
7:55 PM,48.2,35.1,60,30.31,10.0,East,6.9,-,N/A,,Clear,80,2012-10-13 00:55:00
8:15 PM,47.7,35.1,62,30.31,10.0,East,6.9,-,N/A,,Clear,80,2012-10-13 01:15:00